Simultaneous Nadir Overpasses (SNOs) Predictions

Prediction of SNOs between NOAA-15 and METOP-C Satellite Orbit:

Table of predicted SNOs for the next 14.0 days since TLE Epoch: 10/23/2021
Index Date (NOAA-15) Time (NOAA-15) Lat,Lon (NOAA-15) SZA (NOAA-15 ) Date (METOP-C) Time (METOP-C) Lat,Lon (METOP-C) SZA (METOP-C ) Distance(km) Time Diff (sec)
1 11/04/2021 23:46:56 81.02,-138.83 98.89 11/04/2021 23:45:45 81.01,-138.96 98.84 2.66 71
2 11/05/2021 00:37:25 -81.03, 28.46 81.11 11/05/2021 00:36:27 -81.01, 28.42 81.15 1.69 58
3 11/05/2021 01:27:58 81.02,-164.05 98.92 11/05/2021 01:27:06 81.02,-164.07 98.89 0.43 52
4 11/05/2021 02:18:27 -81.03, 3.24 81.08 11/05/2021 02:17:48 -81.02, 3.30 81.10 1.19 39
5 11/05/2021 03:09:00 81.02, 170.73 98.94 11/05/2021 03:08:27 81.03, 170.82 98.94 1.89 33
6 11/05/2021 03:59:29 -81.02, -21.99 81.06 11/05/2021 03:59:09 -81.03, -21.81 81.04 3.24 20
7 11/05/2021 04:50:02 81.02, 145.51 98.97 11/05/2021 04:49:49 81.03, 145.33 98.95 3.10 13
8 11/05/2021 05:40:31 -81.02, -47.22 81.04 11/05/2021 05:40:31 -81.03, -47.29 81.04 1.38 0
9 11/05/2021 06:31:05 81.03, 119.92 98.96 11/05/2021 06:31:11 81.02, 119.85 98.95 1.93 6
10 11/05/2021 07:21:33 -81.02, -72.44 81.01 11/05/2021 07:21:52 -81.04, -72.40 80.99 1.71 19
11 11/05/2021 08:12:07 81.03, 94.69 98.99 11/05/2021 08:12:32 81.03, 94.74 99.00 0.87 25
12 11/05/2021 09:02:36 -81.04, -98.04 81.02 11/05/2021 09:03:14 -81.03, -97.89 80.99 2.68 38
13 11/05/2021 09:53:09 81.03, 69.47 99.01 11/05/2021 09:53:53 81.04, 69.63 99.05 2.84 44
14 11/05/2021 10:43:38 -81.04,-123.26 80.99 11/05/2021 10:44:36 -81.02,-123.37 80.99 2.17 58
15 11/05/2021 11:34:11 81.03, 44.25 99.03 11/05/2021 11:35:15 81.03, 44.15 99.05 1.83 64



Historial Predications of SNOs between NOAA-15 and METOP-C
